Cloquet, MN

1:54 AM CST on December 11, 2017 (GMT -0600)
Cloquet Carlton County

Weather History for KCOQ - December, 2011

Change the Weather History Date:

Wednesday, December 14, 2011

  Actual Average Record
Temperature  
Mean Temperature 32 °F -  
Max Temperature 33 °F 24 °F 48 °F (1998)
Min Temperature 32 °F 11 °F -18 °F (2010)
Degree Days  
Heating Degree Days 32    
Moisture  
Dew Point 30 °F    
Average Humidity 88    
Maximum Humidity 93    
Minimum Humidity 87    
Precipitation  
Precipitation 0.00 in - - ()
Sea Level Pressure  
Sea Level Pressure 29.80 in    
Wind  
Wind Speed 3 mph (ESE)    
Max Wind Speed 8 mph    
Max Gust Speed -    
Visibility 1 miles    
Events Fog , Snow    
Averages and records for this station are not official NWS values.
T = Trace of Precipitation, MM = Missing Value Source: NWS Daily Summary

Daily Weather History Graph

Daily Weather History Graph

Search for Another Location

Airport or City:

Trip Planner

Search our weather history database for the weather conditions in past years. The results will help you decide how hot, cold, wet, or windy it might be!

Date:

Astronomy

Dec. 14, 2011 Rise Set
Actual Time 7:46 AM CST 4:22 PM CST
Civil Twilight 7:11 AM CST 4:57 PM CST
Nautical Twilight 6:33 AM CST 5:35 PM CST
Astronomical Twilight 5:56 AM CST 6:12 PM CST
Moon 8:54 PM CST (12/14) 10:21 AM CST (12/14)
Length of Visible Light 9h 45m
Length of Day
8h 35m
Waning Gibbous, 83% of the Moon is Illuminated
Dec 14
Waning Gibbous
Dec 17
Last Quarter
Dec 24
New
Jan 1
First Quarter
Jan 9
Full

Hourly Weather History & Observations

Time (CST) Temp. Windchill Dew Point Humidity Pressure Visibility Wind Dir Wind Speed Gust Speed Precip Events Conditions
12:15 AM 33.8 °F 29.6 °F 30.2 °F 87% 30.09 in 0.5 mi ESE 4.6 mph - N/A Fog Fog
12:35 AM 33.8 °F 30.8 °F 30.2 °F 87% 30.08 in 0.5 mi ESE 3.5 mph - N/A Fog Fog
12:56 AM 33.8 °F 29.6 °F 30.2 °F 87% 30.08 in 0.5 mi ESE 4.6 mph - N/A Fog Fog
1:16 AM 33.8 °F 30.8 °F 30.2 °F 87% 30.07 in 0.5 mi ESE 3.5 mph - N/A Fog Fog
1:35 AM 33.8 °F 29.6 °F 30.2 °F 87% 30.07 in 1.0 mi ESE 4.6 mph - N/A   Overcast
1:56 AM 33.8 °F 28.6 °F 30.2 °F 87% 30.04 in 1.0 mi ESE 5.8 mph - N/A   Overcast
2:16 AM 33.8 °F 29.6 °F 30.2 °F 87% 30.04 in 1.0 mi SE 4.6 mph - N/A   Overcast
2:36 AM 33.8 °F 30.8 °F 30.2 °F 87% 30.04 in 0.8 mi ESE 3.5 mph - N/A Snow Light Snow
3:15 AM 33.8 °F 30.8 °F 30.2 °F 87% 30.03 in 0.8 mi ESE 3.5 mph - N/A Snow Light Snow
3:36 AM 33.8 °F 27.0 °F 30.2 °F 87% 29.99 in 0.8 mi East 8.1 mph - N/A Snow Light Snow
3:56 AM 33.8 °F 29.6 °F 30.2 °F 87% 29.99 in 0.8 mi ESE 4.6 mph - N/A Snow Light Snow
4:15 AM 33.8 °F 27.7 °F 30.2 °F 87% 29.98 in 0.8 mi ESE 6.9 mph - N/A Snow Light Snow
4:36 AM 33.8 °F 30.8 °F 30.2 °F 87% 29.98 in 1.0 mi ESE 3.5 mph - N/A Snow Light Snow
4:56 AM 33.8 °F 28.6 °F 30.2 °F 87% 29.96 in 0.8 mi East 5.8 mph - N/A Snow Light Snow
5:15 AM 33.8 °F 29.6 °F 30.2 °F 87% 29.96 in 1.0 mi East 4.6 mph - N/A Snow Light Snow
5:36 AM 33.8 °F 30.8 °F 30.2 °F 87% 29.97 in 1.0 mi ESE 3.5 mph - N/A Snow Light Snow
5:55 AM 32.0 °F 28.7 °F 30.2 °F 93% 29.96 in 1.0 mi ESE 3.5 mph - N/A Snow Light Snow
6:16 AM 32.0 °F 28.7 °F 30.2 °F 93% 29.94 in 1.2 mi East 3.5 mph - N/A Snow Light Snow
6:36 AM 32.0 °F 28.7 °F 30.2 °F 93% 29.93 in 1.0 mi East 3.5 mph - N/A Snow Light Snow
6:56 AM 32.0 °F 28.7 °F 30.2 °F 93% 29.92 in 1.0 mi East 3.5 mph - N/A Snow Light Snow
7:15 AM 32.0 °F 27.5 °F 30.2 °F 93% 29.89 in 1.2 mi East 4.6 mph - N/A Snow Light Snow
7:35 AM 32.0 °F 27.5 °F 30.2 °F 93% 29.90 in 1.2 mi ESE 4.6 mph - N/A Snow Light Snow
7:56 AM 32.0 °F 28.7 °F 30.2 °F 93% 29.90 in 1.2 mi ESE 3.5 mph - N/A Snow Light Snow
8:16 AM 32.0 °F 28.7 °F 30.2 °F 93% 29.89 in 1.2 mi ESE 3.5 mph - N/A Snow Light Snow
8:35 AM 32.0 °F 27.5 °F 30.2 °F 93% 29.88 in 0.8 mi ESE 4.6 mph - N/A Snow Light Snow
9:36 AM 32.0 °F 28.7 °F 30.2 °F 93% 29.86 in 0.8 mi ESE 3.5 mph - N/A   Overcast
9:56 AM 32.0 °F - 30.2 °F 93% 29.86 in 0.2 mi Calm Calm - N/A Fog Fog
10:15 AM 32.0 °F - 30.2 °F 93% 29.85 in 0.2 mi Calm Calm - N/A Fog Fog
10:36 AM 32.0 °F 28.7 °F 30.2 °F 93% 29.85 in 0.2 mi East 3.5 mph - N/A Fog Fog
10:56 AM 32.0 °F 28.7 °F 30.2 °F 93% 29.83 in 0.2 mi ESE 3.5 mph - N/A Snow Snow
11:15 AM 32.0 °F 28.7 °F 30.2 °F 93% 29.82 in 0.2 mi East 3.5 mph - N/A Snow Light Snow
11:36 AM 32.0 °F 28.7 °F 30.2 °F 93% 29.80 in 0.2 mi East 3.5 mph - N/A   Overcast
12:16 PM 33.8 °F - 30.2 °F 87% 29.78 in 0.2 mi Calm Calm - N/A Snow Light Snow
12:36 PM 33.8 °F 30.8 °F 30.2 °F 87% 29.76 in 0.2 mi ESE 3.5 mph - N/A Snow Light Snow
12:56 PM 33.8 °F 29.6 °F 30.2 °F 87% 29.75 in 0.2 mi ESE 4.6 mph - N/A Snow Light Snow
1:16 PM 33.8 °F - 30.2 °F 87% 29.74 in 0.2 mi Calm Calm - N/A   Overcast
1:36 PM 33.8 °F 30.8 °F 30.2 °F 87% 29.73 in 0.2 mi East 3.5 mph - N/A   Overcast
1:56 PM 33.8 °F 30.8 °F 30.2 °F 87% 29.71 in 0.2 mi ESE 3.5 mph - N/A Fog Fog
2:16 PM 33.8 °F - 30.2 °F 87% 29.71 in 0.2 mi Calm Calm - N/A Snow Light Snow
2:35 PM 33.8 °F - 30.2 °F 87% 29.71 in 0.2 mi Calm Calm - N/A Fog Fog
2:56 PM 33.8 °F - 30.2 °F 87% 29.70 in 0.2 mi Calm Calm - N/A Snow Light Snow
3:16 PM 33.8 °F - 30.2 °F 87% 29.69 in 0.2 mi Calm Calm - N/A Snow Light Snow
3:35 PM 33.8 °F - 30.2 °F 87% 29.68 in 0.2 mi Calm Calm - N/A Snow Light Snow
3:56 PM 33.8 °F - 30.2 °F 87% 29.67 in 0.2 mi Calm Calm - N/A Fog Fog
4:16 PM 33.8 °F - 30.2 °F 87% 29.67 in 0.2 mi Calm Calm - N/A Fog Fog
4:35 PM 33.8 °F - 30.2 °F 87% 29.67 in 0.2 mi Calm Calm - N/A Fog Fog
4:56 PM 33.8 °F - 30.2 °F 87% 29.67 in 0.2 mi Calm Calm - N/A Fog Fog
5:15 PM 33.8 °F - 30.2 °F 87% 29.66 in 0.2 mi Calm Calm - N/A Fog Fog
5:35 PM 33.8 °F - 30.2 °F 87% 29.66 in 0.2 mi Calm Calm - N/A Fog Fog
5:56 PM 33.8 °F - 30.2 °F 87% 29.67 in 0.2 mi Calm Calm - N/A Fog Fog
6:15 PM 33.8 °F - 30.2 °F 87% 29.66 in 0.2 mi Calm Calm - N/A Fog Fog
6:36 PM 33.8 °F - 30.2 °F 87% 29.65 in 0.2 mi Calm Calm - N/A Fog Fog
7:15 PM 33.8 °F - 30.2 °F 87% 29.64 in 0.2 mi Calm Calm - N/A Fog Fog
7:36 PM 33.8 °F 30.8 °F 30.2 °F 87% 29.63 in 0.2 mi North 3.5 mph - N/A Fog Fog
7:56 PM 33.8 °F - 30.2 °F 87% 29.63 in 0.2 mi Calm Calm - N/A Fog Fog
8:15 PM 33.8 °F - 30.2 °F 87% 29.62 in 0.2 mi Calm Calm - N/A Fog Fog
8:36 PM 33.8 °F - 30.2 °F 87% 29.62 in 0.5 mi Calm Calm - N/A Fog Fog
8:56 PM 33.8 °F 30.8 °F 30.2 °F 87% 29.60 in 0.5 mi NW 3.5 mph - N/A Fog Fog
9:16 PM 33.8 °F 29.6 °F 30.2 °F 87% 29.60 in 0.8 mi NW 4.6 mph - N/A   Overcast
9:36 PM 33.8 °F - 30.2 °F 87% 29.60 in 1.2 mi Calm Calm - N/A   Overcast
9:55 PM 33.8 °F - 30.2 °F 87% 29.59 in 1.0 mi Calm Calm - N/A   Overcast
10:16 PM 33.8 °F - 30.2 °F 87% 29.59 in 1.0 mi Calm Calm - N/A   Overcast
10:36 PM 33.8 °F 30.8 °F 30.2 °F 87% 29.59 in 1.8 mi West 3.5 mph - N/A   Overcast
10:56 PM 33.8 °F 30.8 °F 30.2 °F 87% 29.58 in 4.0 mi West 3.5 mph - N/A   Overcast
11:16 PM 33.8 °F 28.6 °F 30.2 °F 87% 29.59 in 5.0 mi West 5.8 mph - N/A   Overcast
11:36 PM 33.8 °F 28.6 °F 30.2 °F 87% 29.58 in 5.0 mi West 5.8 mph - N/A Snow Light Snow
11:55 PM 33.8 °F 28.6 °F 30.2 °F 87% 29.58 in 5.0 mi WNW 5.8 mph - N/A Snow Light Snow